Regional Weather Roundup
Issued by NWS Midland/Odessa, TX

Home | Current Version | Previous Version | Text Only | Print | Product List | Glossary On
Versions: 1 2 3 4 5 6 7 8 9 10 11 12 13 14 15 16 17 18 19 20 21 22 23 24 25 26 27 28 29 30 31 32 33 34 35 36 37 38 39 40 41 42 43 44 45 46 47 48 49 50
000
ASUS44 KMAF 260010
RWRMAF
MIDLAND AREA WEATHER ROUNDUP
NATIONAL WEATHER SERVICE MIDLAND TX
600 PM CST THU DEC 25 2014

...IN SOUTHWEST TEXAS AND SOUTHEAST NEW MEXICO...

CITY           SKY/WX    TMP DP  RH WIND       PRES   REMARKS
ALPINE         MOCLDY    56  17  21 SW16      29.86R
ANDREWS        FAIR      54  24  31 S8        29.74R
ARTESIA        PTCLDY    59  14  17 S13G18    29.66S
BIG SPRING     CLOUDY    56  22  27 SE17      29.78R
CARLSBAD       PTCLDY    56  20  24 SE13      29.66F
DRYDEN           N/A     55  26  32 CALM      29.83S
FORT STOCKTON  CLOUDY    62  21  20 S18G24    29.75S
GUAD PASS      NOT AVBL
HOBBS          CLEAR     54  21  28 S9        29.73R
MARFA          CLOUDY    54  18  24 S14       29.85R
MIDLAND AIRPK  CLOUDY    55  23  29 S13       29.76R
MIDLAND INTL   MOCLDY    54  24  31 S17       29.75S
ODESSA         MOCLDY    55  22  27 S14       29.75S
PECOS          MOCLDY    62  26  25 W6        29.70S
PRESIDIO       FAIR      59  24  25 CALM      29.77S
SEMINOLE       MOCLDY    51  26  38 S5        29.74R
SNYDER         CLOUDY    54  24  31 S10       29.77R
WINK           CLOUDY    58  25  28 E6        29.70F
$$
...OTHER STATIONS IN TEXAS...

CITY           SKY/WX    TMP DP  RH WIND       PRES   REMARKS
ABILENE        MOCLDY    58  24  27 S18       29.80F
AMARILLO       CLOUDY    48  19  31 S14       29.69R
AUSTIN         MOCLDY    57  34  41 S12       29.96S
BROWNSVILLE    CLOUDY    64  51  62 SE12      30.00F
CORPUS CHRISTI MOCLDY    62  49  62 SE13      29.99S
DALLAS FTW     PTCLDY    56  29  35 S17       29.92R
DEL RIO        PTCLDY    64  30  27 SE9       29.86R
EL PASO        MOCLDY    65  15  14 SW20G29   29.67F
HOUSTON INT    MOCLDY    59  45  59 S13       30.06S
LUBBOCK        CLOUDY    53  24  32 S14       29.72R
SAN ANGELO     MOCLDY    59  24  26 S10       29.81F
SAN ANTONIO    PTCLDY    58  31  35 SE14      29.96F
WACO           CLEAR     57  35  43 S17       29.95S
WICHITA FALLS  NOT AVBL
$$
...OTHER LOCATIONS IN NEW MEXICO...

CITY           SKY/WX    TMP DP  RH WIND       PRES   REMARKS
ALAMAGORDO     PTCLDY    57  12  17 S13       29.66F
ALBUQUERQUE    MOCLDY    48  17  29 NW5       29.60S
CANNON AFB     HAZE      45  21  39 SE7       29.67R VSB 1/2
CLOVIS         PTCLDY    41  21  45 S6        29.68R WCI  37
HOLLOMAN AFB   PTCLDY    58  14  18 SW12      29.64F
ROSWELL        CLEAR     59  10  14 S16G26    29.64R
RUIDOSO        CLEAR     45   7  21 SW37G43   29.65S WCI  34
SANTA FE       MOCLDY    38  18  44 E3        29.61F
TRUTH OR CONSE PTCLDY    58  14  17 SW15G25   29.60F
TUCUMCARI      CLEAR     49  18  29 S9        29.60S
$$


USA.gov is the U.S. government's official web portal to all federal, state and local government web resources and services.